Location: Central Falls
(41.8900°N, 71.3929°W)
Time: 14:15:10
(UTC+00:00)

Vanguard 1 Rocket - Pass Details

Date: 08 December 2023
Orbit: 654 x 4218 km, 34.3° (Epoch: 24 February)

Event Time Altitude Azimuth Distance (km) Brightness Sun altitude
Rises 07:56:10 0° 226° (SW) 8,411 - -44.6°
Reaches altitude 10° 08:02:23 10° 222° (SW) 7,416 - -43.4°
Exits shadow 08:12:14 28° 210° (SSW) 5,813 11.1 -41.6°
Maximum altitude 08:25:48 49° 156° (SSE) 4,103 10.6 -39.1°
Drops below altitude 10° 08:40:51 10° 88° (E) 5,001 11.9 -36.3°
Sets 08:44:02 0° 83° (E) 5,620 12.4 -35.7°
